Terminal Aerodrome Forecast
Issued by NWS

Home | Current Version | Previous Version | Text Only | Print | Product List | Glossary On
Versions: 1 2 3 4 5 6 7 8 9 10 11 12 13 14 15 16 17 18 19 20 21 22 23 24 25
000
FTUS43 KDDC 280159 AAE
TAFHYS
TAF AMD
KHYS 280159Z 2802/2824 21023G30KT P6SM TS BKN090CB OVC110
      TEMPO 2802/2805 VRB20G30KT 3SM -TSRA
     FM280600 33005KT P6SM BKN110
     FM281200 29007KT P6SM SCT200=

USA.gov is the U.S. government's official web portal to all federal, state and local government web resources and services.